Location: Ravensburg
(47.7866°N, 9.6124°E)
Time: 18:29:19
(UTC+01:00)

QB50P2 - Visible Passes

Search period start: 14 March 2026 00:00
Search period end: 24 March 2026 00:00
Orbit: 518 x 531 km, 98.1° (Epoch: 13 March)

Date Brightness Start Highest point End Pass type
(mag) Time Alt. Az. Time Alt. Az. Time Alt. Az.
14 Mar ? 05:19:25 10° NNE 05:23:06 47° E 05:26:45 10° S visible
15 Mar ? 05:07:29 10° NNE 05:10:58 34° E 05:14:26 10° SSE visible
16 Mar ? 04:55:37 10° NE 04:58:48 25° E 05:01:58 10° SSE visible
17 Mar ? 04:43:52 10° NE 04:46:36 19° E 04:49:19 10° SE visible
18 Mar ? 04:32:20 10° ENE 04:34:21 14° E 04:36:22 10° ESE visible
19 Mar ? 04:21:46 10° E 04:22:04 10° E 04:22:21 10° E visible
19 Mar ? 05:52:55 10° N 05:56:42 73° WNW 06:00:29 10° SSW visible
20 Mar ? 05:40:45 10° NNE 05:44:33 81° ESE 05:48:20 10° SSW visible
21 Mar ? 05:28:36 10° NNE 05:32:20 57° E 05:36:04 10° S visible
22 Mar ? 05:16:29 10° NNE 05:20:06 40° E 05:23:41 10° S visible
23 Mar ? 05:04:26 10° NE 05:07:49 29° E 05:11:10 10° SSE visible
